STARLINK-36073, 66844

Orbit data source: Space-Track

STARLINK-36073, 66844 is a payload satellite owned by SpaceX/Seattle (US) in LEO that was launched on Tue, 02 Dec 2025 UTC via an FALCON 9 launch vehicle from the Air Force Western Test Range (AFWTR). Payload-class satellites include a variety of spacecraft equipped with specific instruments for various scientific and technological missions. These include communications satellites like Starlink; space stations such as the ISS; scientific satellites like the Hubble; Earth observation satellites from companies like Planet Labs, Umbra, and HawkEye 360; GPS; miniature CubeSats for education and research; and military/defense satellites.

Loading next visibility...
Identifier
66844, 2025-280Z
Orbit
LEO
Country
Flag of USUS
Related business
Manufacturer
SpaceX/Seattle
Mission
Operational Commercial Communications
Bus & Motor
STARLINK V2MO, Unknown motor
Mass
575 kg wet, ~530 kg dry
Launch date (UTC)
2025-12-02 (7 months ago)
Launch vehicle
FALCON 9
Launch site
Air Force Western Test Range (AFWTR)
Object type
Payload
Rocket body
Debris
Shape & HBR
Box + 2 Pan, 17.7 m
Radar Cross Section
36.964 m², Large (>1 m²)

Expand to show TLE details & history
Last TLE update: 23 hours ago

TLE from 23 hours ago
0 STARLINK-36073
1 66844U 25280Z   26170.95748469  .00005720  00000-0  48666-3 0  9990
2 66844  70.0011  76.6447 0003121 269.5639  90.5163 14.98337048 31364
Epoch: 2026-06-19T22:58Z
TLE epoch observation values (Epoch: 2026-06-19T22:58:46.677Z)
Latitude
0.00004°
Longitude
-176.22878°
Altitude
574.478 km
Speed
7.574 km/s
True Right ascension
05h 06m 34s
True Declination
0° 00' 00"
Sunlit
Object was in daylight at epoch
Visualization orbit readout
Latitude
Unknown
Longitude
Unknown
Altitude
Unknown
Speed
Unknown
Apparent Right ascension
Unknown
Apparent Declination
Unknown
Sunlit
N/A
Visualization observer readout
Local Sidereal Time
08:32:50
Azimuth
Unknown
Elevation
Unknown
Doppler factor
Unknown
Orbital elements
Apogee altitude
572.151 km
Perigee altitude
567.814 km
Semi-major axis
6,948.119 km
Eccentricity
0.00031
Inclination
70.0011°
RAAN
76.6447°
Arg. of periapsis
269.5639°
True anomaly
90.55206°
Mean anomaly
90.5163°
Eccentric anomaly
90.53418°
Mean motion
3.74751 °/min
Orbital period
96.06 mins
BSTAR
0.00048666
Loading maneuver chart data...
Computing Atmospheric mass density...
Loading historical data...
Loading historical data...
Loading historical data...
Loading historical data...
Loading historical data...
Loading historical data...
Loading historical data...

Documentation

Showing up to 5 results
|